Henderson, KY

12:26 AM CDT on April 30, 2017 (GMT -0500)
Henderson City-County

Weather History for KEHR - October, 2012

Change the Weather History Date:

Friday, October 5, 2012

  Actual Average Record
Temperature  
Mean Temperature 54 °F -  
Max Temperature 68 °F 75 °F 92 °F (1951)
Min Temperature 42 °F 50 °F 31 °F (1980)
Degree Days  
Heating Degree Days 11    
Growing Degree Days 4 (Base 50)    
Moisture  
Dew Point 46 °F    
Average Humidity 68    
Maximum Humidity 77    
Minimum Humidity 56    
Precipitation  
Precipitation 0.34 in - - ()
Sea Level Pressure  
Sea Level Pressure 30.11 in    
Wind  
Wind Speed 7 mph (NNW)    
Max Wind Speed 15 mph    
Max Gust Speed 28 mph    
Visibility 10 miles    
Events      
Averages and records for this station are not official NWS values.
T = Trace of Precipitation, MM = Missing Value Source: NWS Daily Summary

Daily Weather History Graph

Daily Weather History Graph

Search for Another Location

Airport or City:

Trip Planner

Search our weather history database for the weather conditions in past years. The results will help you decide how hot, cold, wet, or windy it might be!

Date:

Astronomy

Oct. 05, 2012 Rise Set
Actual Time 6:50 AM CDT 6:26 PM CDT
Civil Twilight 6:24 AM CDT 6:53 PM CDT
Nautical Twilight 5:53 AM CDT 7:23 PM CDT
Astronomical Twilight 5:23 AM CDT 7:54 PM CDT
Moon 9:55 PM CDT (10/5) 11:52 AM CDT (10/5)
Length of Visible Light 12h 29m
Length of Day
11h 36m
Waning Gibbous, 74% of the Moon is Illuminated
Oct 5
Waning Gibbous
Oct 8
Last Quarter
Oct 15
New
Oct 21
First Quarter
Oct 29
Full

Hourly Weather History & Observations

Time (CDT) Temp. Windchill Dew Point Humidity Pressure Visibility Wind Dir Wind Speed Gust Speed Precip Events Conditions
12:15 AM 64.4 °F - 53.6 °F 68% 30.14 in 10.0 mi South 10.4 mph - N/A   Clear
12:35 AM 64.4 °F - 53.6 °F 68% 30.14 in 10.0 mi South 8.1 mph - N/A   Clear
12:55 AM 62.6 °F - 51.8 °F 68% 30.14 in 10.0 mi SSW 5.8 mph - N/A   Clear
1:15 AM 60.8 °F - 51.8 °F 72% 30.14 in 10.0 mi SSW 4.6 mph - N/A   Clear
1:35 AM 60.8 °F - 51.8 °F 72% 30.14 in 10.0 mi SW 4.6 mph - N/A   Clear
1:55 AM 60.8 °F - 51.8 °F 72% 30.14 in 10.0 mi South 5.8 mph - N/A   Clear
2:15 AM 62.6 °F - 51.8 °F 68% 30.13 in 10.0 mi SSW 5.8 mph - N/A   Clear
2:35 AM 60.8 °F - 51.8 °F 72% 30.13 in 10.0 mi SSW 4.6 mph - N/A   Clear
2:55 AM 60.8 °F - 51.8 °F 72% 30.12 in 10.0 mi South 5.8 mph - N/A   Clear
3:15 AM 60.8 °F - 51.8 °F 72% 30.12 in 10.0 mi SSW 6.9 mph - N/A   Clear
3:35 AM 60.8 °F - 51.8 °F 72% 30.12 in 10.0 mi West 6.9 mph - N/A   Clear
3:55 AM 60.8 °F - 51.8 °F 72% 30.13 in 10.0 mi West 4.6 mph - N/A   Clear
4:15 AM 59.0 °F - 50.0 °F 72% 30.13 in 10.0 mi Calm Calm - N/A   Clear
4:35 AM 57.2 °F - 48.2 °F 72% 30.13 in 10.0 mi Calm Calm - N/A   Clear
4:55 AM 55.4 °F - 48.2 °F 77% 30.13 in 10.0 mi Calm Calm - N/A   Clear
5:15 AM 55.4 °F - 48.2 °F 77% 30.14 in 10.0 mi Calm Calm - N/A   Clear
5:35 AM 57.2 °F - 48.2 °F 72% 30.14 in 10.0 mi NNW 4.6 mph - N/A   Clear
5:55 AM 57.2 °F - 48.2 °F 72% 30.14 in 10.0 mi North 3.5 mph - N/A   Clear
6:15 AM 57.2 °F - 48.2 °F 72% 30.14 in 10.0 mi North 3.5 mph - N/A   Clear
6:35 AM 57.2 °F - 46.4 °F 67% 30.14 in 10.0 mi North 3.5 mph - N/A   Clear
6:55 AM 55.4 °F - 46.4 °F 72% 30.13 in 10.0 mi North 5.8 mph - N/A   Clear
7:15 AM 55.4 °F - 46.4 °F 72% 30.14 in 10.0 mi North 4.6 mph - N/A   Clear
7:35 AM 55.4 °F - 46.4 °F 72% 30.14 in 10.0 mi North 3.5 mph - N/A   Clear
7:55 AM 57.2 °F - 46.4 °F 67% 30.15 in 10.0 mi NNW 6.9 mph - N/A   Partly Cloudy
8:15 AM 55.4 °F - 46.4 °F 72% 30.14 in 10.0 mi North 6.9 mph - N/A   Scattered Clouds
8:35 AM 57.2 °F - 46.4 °F 67% 30.14 in 10.0 mi NNE 8.1 mph - N/A   Mostly Cloudy
8:55 AM 57.2 °F - 46.4 °F 67% 30.15 in 10.0 mi NNE 8.1 mph - N/A   Mostly Cloudy
9:15 AM 57.2 °F - 46.4 °F 67% 30.14 in 10.0 mi NNE 6.9 mph - N/A   Partly Cloudy
9:35 AM 57.2 °F - 46.4 °F 67% 30.15 in 10.0 mi NNE 6.9 mph - N/A   Clear
9:55 AM 59.0 °F - 46.4 °F 63% 30.16 in 10.0 mi North 8.1 mph - N/A   Partly Cloudy
10:15 AM 60.8 °F - 48.2 °F 63% 30.15 in 10.0 mi NNW 6.9 mph - N/A   Partly Cloudy
10:35 AM 62.6 °F - 48.2 °F 59% 30.14 in 10.0 mi NW 5.8 mph - N/A   Partly Cloudy
10:55 AM 60.8 °F - 48.2 °F 63% 30.14 in 10.0 mi North 6.9 mph - N/A   Scattered Clouds
11:35 AM 62.6 °F - 48.2 °F 59% 30.12 in 10.0 mi NE 5.8 mph - N/A   Clear
12:15 PM 64.4 °F - 50.0 °F 59% 30.10 in 10.0 mi Calm Calm - N/A   Partly Cloudy
12:35 PM 64.4 °F - 50.0 °F 59% 30.09 in 10.0 mi East 4.6 mph - N/A   Mostly Cloudy
12:55 PM 66.2 °F - 50.0 °F 56% 30.07 in 10.0 mi Calm Calm - N/A   Mostly Cloudy
1:35 PM 66.2 °F - 51.8 °F 60% 30.06 in 10.0 mi Calm Calm - N/A   Clear
1:55 PM 66.2 °F - 51.8 °F 60% 30.05 in 10.0 mi NNW 4.6 mph - N/A   Mostly Cloudy
2:15 PM 66.2 °F - 51.8 °F 60% 30.05 in 10.0 mi NNE 5.8 mph - N/A   Mostly Cloudy
2:35 PM 66.2 °F - 51.8 °F 60% 30.05 in 10.0 mi NNW 8.1 mph - N/A   Mostly Cloudy
2:55 PM 64.4 °F - 51.8 °F 64% 30.04 in 10.0 mi NW 6.9 mph - N/A   Overcast
3:15 PM 64.4 °F - 50.0 °F 59% 30.04 in 10.0 mi NNW 5.8 mph - N/A   Overcast
3:35 PM 64.4 °F - 50.0 °F 59% 30.00 in 10.0 mi North 9.2 mph - N/A   Mostly Cloudy
3:55 PM 64.4 °F - 50.0 °F 59% 30.00 in 10.0 mi North 6.9 mph - N/A   Mostly Cloudy
4:15 PM 64.4 °F - 48.2 °F 56% 29.99 in 10.0 mi North 5.8 mph - N/A   Overcast
4:35 PM 62.6 °F - 48.2 °F 59% 29.99 in 10.0 mi NNW 13.8 mph 18.4 mph N/A   Overcast
4:55 PM 55.4 °F - 44.6 °F 67% 30.03 in 10.0 mi NW 13.8 mph - N/A   Overcast
5:15 PM 53.6 °F - 42.8 °F 67% 30.06 in 10.0 mi NNW 15.0 mph 20.7 mph N/A   Overcast
5:35 PM 51.8 °F - 41.0 °F 67% 30.07 in 10.0 mi NNW 15.0 mph 20.7 mph N/A   Overcast
5:55 PM 50.0 °F - 39.2 °F 66% 30.07 in 10.0 mi North 9.2 mph 20.7 mph N/A   Overcast
6:15 PM 48.2 °F - 39.2 °F 71% 30.07 in 10.0 mi NNW 12.7 mph 19.6 mph N/A   Overcast
6:35 PM 48.2 °F - 37.4 °F 66% 30.10 in 10.0 mi NNW 13.8 mph 27.6 mph N/A   Overcast
6:55 PM 46.4 °F 40.7 °F 37.4 °F 71% 30.11 in 10.0 mi NNW 12.7 mph 20.7 mph N/A   Overcast
7:15 PM 46.4 °F 41.1 °F 37.4 °F 71% 30.09 in 10.0 mi North 11.5 mph 17.3 mph N/A   Overcast
7:35 PM 46.4 °F 41.1 °F 37.4 °F 71% 30.10 in 10.0 mi North 11.5 mph 18.4 mph 0.03 in   Overcast
7:55 PM 46.4 °F 41.1 °F 37.4 °F 71% 30.13 in 10.0 mi NW 11.5 mph 20.7 mph 0.04 in   Overcast
8:15 PM 46.4 °F 41.9 °F 37.4 °F 71% 30.11 in 10.0 mi North 9.2 mph - 0.01 in   Overcast
8:35 PM 44.6 °F 39.2 °F 35.6 °F 71% 30.12 in 10.0 mi NNW 10.4 mph - 0.03 in   Overcast
8:55 PM 44.6 °F 38.4 °F 35.6 °F 71% 30.13 in 10.0 mi NNW 12.7 mph 23.0 mph 0.04 in   Overcast
9:15 PM 44.6 °F 38.8 °F 35.6 °F 71% 30.14 in 10.0 mi NNW 11.5 mph 19.6 mph 0.01 in   Overcast
9:35 PM 44.6 °F 39.7 °F 35.6 °F 71% 30.15 in 10.0 mi NNW 9.2 mph 17.3 mph 0.03 in   Overcast
9:55 PM 42.8 °F 37.5 °F 35.6 °F 76% 30.17 in 10.0 mi NNW 9.2 mph 17.3 mph 0.05 in   Overcast
10:35 PM 42.8 °F 37.0 °F 35.6 °F 76% 30.16 in 10.0 mi NW 10.4 mph - 0.05 in   Overcast
10:55 PM 42.8 °F 38.0 °F 33.8 °F 70% 30.15 in 10.0 mi NNW 8.1 mph - 0.08 in   Overcast
11:15 PM 42.8 °F 37.0 °F 33.8 °F 70% 30.15 in 10.0 mi North 10.4 mph - 0.03 in   Overcast
11:35 PM 42.8 °F 38.6 °F 33.8 °F 70% 30.14 in 10.0 mi North 6.9 mph - 0.11 in   Overcast
11:55 PM 42.8 °F 38.0 °F 33.8 °F 70% 30.15 in 10.0 mi NNW 8.1 mph - 0.13 in   Overcast